Погода в Лаукуве

Погода в Лаукуве : погода сейчас, прогноз погоды и архив. Всё, что Вы хотите узнать о погоде в Лаукуве!

Поиск расширенной информации на нашем сайте:

Другие новости

Новости СМИ2

Главная страница сайта

Новости сайта

03.07.2017

Напоминаем, что на нашем специализированном сайте Метеоцентр.Азия вы можете получить высокодетализированные автоматические прогнозы погоды по пунктам России, СНГ и мира в авиационном формате (включающие направление и скорость ветра, видимость, явления погоды, количество и форму облачности, нижнюю и верхнюю границу облачности).

Рекомендуем: монтаж система вентиляции торгового центра

Погода в Лаукуве - сегодня

Время (UTC), дата Ветер
(°,м/с) 
Видим.   Явления Облачность Т
(°С)
Тd
(°С)
f(%) Тe
(°С)
Pmin
(гПа)
dP
(гПа)
Po
(мм)
O2
(г/м3)
Тmin Tmax R s Состояние
почвы
21 19.11.17 180 (Ю) 4-6{10}  19000 м  {дождь}  10/10 210 м 
[St]
+2.4 +1.6 94 998.8  1.1  734  292           
00 20.11.17 180 (Ю) 3-4{07}  13000 м  слаб. дождь  10/10 120 м 
[Frnb|Ns]
+2 +1.5 96 +1  999.2  0.4  734  293      0.0     
03 20.11.17 180 (Ю) 3-4{06}  15000 м  в посл. час дождь  10/10 240 м 
[St]
+2.2 +1.7 96 +1  1000.1  0.8  735  293           
06 20.11.17 200 (Ю) 2-4{05}  13000 м  слаб. дождь  10/10 120 м 
[Frnb|Ns]
+2.1 +1.8 98 +1  1001.4  1.3  736  293  +1.9    0.5    мокрая 
09 20.11.17 240 (ЮЗ) 2-4{04}  10 км  слаб. дождь  10/10 180 м 
[Frnb|Ns]
+2 +1.7 98 +1  1002.9  1.5  737  294           
12 20.11.17 330 (СЗ) 3-4{04}  11000 м  слаб. дождь  10/10 120 м 
[Frnb|Ns]
+1.6 +1.3 98 1003.7  0.7  737  295         
15 20.11.17 350 (С) 3-5{05}  20000 м  {дождь}  10/10 270 м 
[St]
+1.4 +0.6 94 1005  1.3  738  295           
18 20.11.17 330 (СЗ) 3-5{07}  9000 м  слаб. дождь  10/10 100 м 
[Frnb|Ns]
+1.1 +0.8 98 1006.6  1.5  739  296    +2.2     
21 20.11.17 тихо () -2{06}  13000 м  {дождь}  5/5 150 м 
[St]
+0.8 +0.3 96 +1  1008.1  1.5  741  297           
00 21.11.17 тихо () -2{04}  20000 м  {дождь}  10/10 700 м 
[Sc]
+0 -0.3 98 1008.9  0.7  741  299      0.0     
03 21.11.17 тихо () -2{03}  20000 м  в посл. час снег{дождь}  10/10 840 м 
[Sc]
+0.1 -0.2 98 1009.5  0.6  742  298           
06 21.11.17 230 (ЮЗ) 2-4{04}  15000 м  {снег, дождь}  3/3 1000 м 
[Sc]
-0.4 -1 96 -1  1009.9  0.3  742  299  -0.4    0.0    замёрзшая 
09 21.11.17 250 (З) 2-4{05}  1400 м  в посл. час туман  9/9 1000 м 
[Sc]
-0.1 -0.1 100 -1  1010.7  0.9  742  298           
12 21.11.17 250 (З) 1-3{05}  20000 м  {туман}  8/5 240 м верхняя 
[Sc|Ci sp]
+2 +1.7 98 +3  1010.3  -0.3  742  297           
15 21.11.17 260 (З) 2-3{06}  20000 м  {ливн. осадки}  8/6 1000 м средняя, верхняя 
[Sc|Ac trans|Ci sp]
+0.6 -0.2 94 1010.6  -0.2  742  298           
18 21.11.17 220 (ЮЗ) 1-3{04}  16000 м  в посл. час туман{ливн. осадки, дождь}  8/8 270 м 
[Sc]
-0.3 -0.6 98 1011.1  0.4  743  299    +2.4  0.0     
21 21.11.17 240 (ЮЗ) 2-4{05}  0400 м  туман  ?/?  
+0 +0 100 -1  1011.5  0.4  743  299           
00 22.11.17 240 (ЮЗ) 2-4{05}  0200 м  туман  ?/?  
-0.1 -0.1 100 -1  1012.3  0.8  744  300           
03 22.11.17 210 (ЮЗ) 3-4{05}  9000 м  дымка{туман}  10/10 960 м 
[Sc]
-0.5 -0.5 100 -2  1012.7  0.4  744  300           
06 22.11.17 190 (Ю) 3-5{06}  1200 м  в посл. час туман  10/10 100 м 
[St]
-1 -1 100 -3  1013.4  0.6  744  300  -1.1        замёрзшая 
09 22.11.17 170 (Ю) 4-5{06}  0400 м  туман  ?/?  
-1.3 -1.3 100 -4  1014.2  0.8  745  301           
12 22.11.17 160 (Ю) 4-8{08}  2600 м  дымка{туман}  10/10 60 м 
[St]
-1.7 -1.7 100 -4  1014.4  0.2  745  302           
15 22.11.17 140 (ЮВ) 6-8{08}  10 км    10/10 150 м 
[St]
-1.5 -1.8 98 -5  1014.4  745  301           
18 22.11.17 130 (ЮВ) 6-9{10}  13000 м    9/8 240 м средняя 
[St|Ac trans]
-1.5 -2.7 92 -5  1014.6  0.2  745  301    -0.8       
21 22.11.17 140 (ЮВ) 6-11{11}  11000 м    9/6 240 м средняя 
[St|Ac trans]
-1.2 -2.4 92 -5  1013.7  -0.9  745  301           
Время (UTC), дата Ветер
(°,м/с) 
Видим.   Явления Облачность Т
(°С)
Тd
(°С)
f(%) Тe
(°С)
Pmin
(гПа)
dP
(гПа)
Po
(мм)
O2
(г/м3)
Тmin Tmax R s Состояние
почвы

Для получения пояснительной информации подведите курсор к названию столбца.

ПОГОДА в Лаукуве - архив

Всё, что Вы хотите узнать о погоде в Лаукуве - удобно и подробно!

Выберите нужную дату (начиная с 1 января 2015* года) и нажмите кнопку "Найти".
Будут отображены архивные сводки погоды по пункту Лаукува, начиная с указанной даты.


Отображать данные в формате CSV (для использования в таблицах Excel)


Внимание! Наш архив погоды предназначен исключительно для личного некоммерческого использования в познавательных целях. Если Вам необходимы официальные справки о состоянии погоды (для производственных, юридических, коммерческих и т.п. целей), обращайтесь в органы Росгидромета.

*Примечание: данная дата относится к архиву по метеостанциям СССР (Россия, СНГ, Балтия).
Архив по метеостанциям Зарубежной Европы и Азии (кроме Китая) хранится 10 дней, по другим регионам земного шара (Китай, Африка, Америка, Австралия, Океания) - 1 день.

Лаукува - район местоположения метеостанции


Название, широта, долгота, высота метеостанции:
Лаукува 55.6°ш. 22.2°д. 166 м над ур. моря [Литва]

Дополнительная информация

В oтличие oт бoльшинства пoгoдных сайтoв мы публикуем пoдрoбную метеoинфoрмацию в детальнoм прoфессиoнальнoм фoрмате.

Характеристики температуры и влажнoсти вoздуха измеряются на высoте 2 м в тени вдали oт зданий и деревьев.
Скoрoсть ветра измеряется на высoте 10 м (на урoвне рoста челoвека скoрoсть ветра ниже в 1.5-2 раза). Если метеoстанция нахoдится в гoрoде или в лесу, тo скoрoсть ветра занижена на 2-4 м/с пo сравнению с oткрытым местoм. Скoрoсть ветра над акватoриями крупных рек и oзёр, а также на вершинах хoлмoв на 2-5 м/с выше, чем в oбычных услoвиях.
Атмoсфернoе давление в разных тoчках местнoсти мoжет значительнo oтличаться oт давления на метеoстанции, в зависимoсти oт услoвий рельефа (при пoдъёме на 10 м давление пoнижается примернo на 1 мм рт.ст.).